RH
84 84 80 73 67 60 53 52 52 50 50 50 49 53 58 60 62 65 68 72 76 79 86 94 98 100 98 95 96 94 85 73 61 53 49 47 46 46 47 50 48 43 36 26 20 19 20 21 22 23 23 24 24 25 23 22 22 22 22 23 24 25 26 26 26 27 29 30 31 31 30 31 33 33 33 33 32 31 31 31 30 30 30 30 29
83 73 70 64 63 66 61 59 63 63 62 61 60 65 67 64 61 62 63 66 70 76 85 88 90 96 96 92 95 98 95 86 72 60 54 51 49 48 48 50 49 44 36 27 21 19 18 18 20 22 24 25 26 28 28 27 26 27 27 28 29 30 31 33 33 33 34 34 34 34 33 35 39 40 40 40 39 39 38 37 37 36 35 35 34
82 71 70 66 70 81 76 67 70 73 71 72 74 76 74 67 60 57 54 53 56 66 78 85 89 92 91 92 97 101 101 96 82 68 59 54 51 50 49 49 47 42 35 29 23 19 17 18 21 25 28 31 32 33 34 33 32 31 31 31 31 31 32 35 38 39 39 39 40 42 43 47 49 48 48 46 45 45 45 44 43 43 43 41 39
82 74 77 75 77 83 78 73 77 76 72 71 70 69 67 60 51 45 47 49 52 56 66 79 87 88 91 96 99 100 101 101 92 77 65 58 55 54 51 48 44 39 34 29 24 20 19 23 29 34 36 36 36 37 39 40 39 39 39 39 39 39 38 38 40 43 45 45 47 49 52 55 56 54 52 50 48 47 49 50 50 50 51 51 50
85 78 83 88 92 88 80 80 82 75 67 61 56 51 46 44 47 56 65 66 60 59 66 77 82 84 92 97 97 98 100 101 98 87 74 68 65 59 53 47 42 38 34 30 26 22 20 26 35 41 43 43 42 42 43 46 49 50 52 53 54 54 53 50 49 50 50 51 51 50 50 51 52 52 53 54 55 55 54 53 50 48 46 45 45
90 88 90 95 99 93 85 87 87 80 72 64 58 56 55 63 78 80 67 52 45 52 65 76 84 93 99 93 89 95 99 99 101 95 85 78 71 62 52 46 42 38 35 31 28 25 24 26 33 38 40 41 41 41 42 46 51 55 60 64 65 64 63 62 61 61 61 63 63 62 61 62 62 61 60 58 53 47 41 35 29 25 22 21 20
86 89 95 98 101 97 89 87 87 84 82 80 82 86 84 84 85 70 48 42 48 58 67 72 80 93 96 88 87 94 97 99 101 100 95 87 75 61 51 46 42 38 35 33 33 33 33 33 33 35 36 36 36 37 40 45 49 56 67 77 78 76 74 70 67 65 66 68 70 70 68 68 67 64 59 49 37 26 20 17 15 14 13 12 13
77 80 85 85 87 88 81 81 88 91 92 91 87 81 70 61 58 52 48 54 59 60 67 75 79 83 85 88 94 97 98 99 100 101 99 90 76 63 53 47 44 41 40 42 47 48 47 46 46 46 47 46 44 43 44 48 51 55 64 74 79 80 79 77 73 69 67 66 66 63 59 56 53 50 44 35 26 21 19 18 18 18 19 19 20
61 62 67 67 72 78 74 75 88 91 85 77 66 56 52 50 49 50 54 56 53 53 64 78 86 89 89 94 99 99 99 101 100 101 99 91 80 71 61 53 48 48 52 59 67 69 66 62 59 59 60 57 54 51 50 52 54 56 58 61 63 65 69 73 76 75 72 67 61 54 46 40 36 33 30 27 25 25 25 25 25 25 25 25 25
42 45 54 60 71 79 70 61 68 69 61 59 54 48 53 59 56 55 60 61 59 64 75 84 91 95 96 97 100 98 95 93 90 90 89 87 84 82 76 66 57 57 64 70 73 76 77 73 67 63 60 56 53 52 53 53 54 55 55 53 51 53 58 68 77 80 76 69 62 53 43 35 32 30 30 31 31 31 31 31 31 31 29 28 27
43 43 46 47 52 56 47 37 46 56 62 69 67 54 52 53 47 47 58 63 62 67 78 83 84 87 89 90 90 84 77 70 66 66 68 71 75 78 78 74 68 66 67 65 62 63 63 63 62 60 56 52 51 54 57 58 57 56 57 57 55 55 59 70 82 85 79 70 62 56 50 45 43 43 43 44 43 42 41 40 38 37 35 33 31
50 47 43 39 37 35 31 32 45 58 67 73 70 59 54 47 32 28 42 55 57 59 64 67 67 68 70 74 76 70 61 53 48 46 48 53 59 66 71 74 74 73 70 66 65 66 63 60 57 53 48 46 48 52 54 55 54 55 57 60 63 63 63 69 78 81 79 73 69 66 63 60 58 57 57 57 56 55 53 51 49 46 44 42 40
50 46 41 37 36 33 30 35 46 52 51 48 46 48 52 44 27 20 30 42 46 46 46 53 60 60 58 63 70 69 58 49 45 45 45 46 49 57 65 71 74 75 73 70 71 71 67 60 50 40 34 34 37 41 43 44 46 49 53 58 64 68 69 71 73 73 71 69 68 67 67 66 66 65 64 62 60 57 55 52 50 47 44 42 40
41 39 37 36 37 34 30 30 34 35 30 27 28 32 36 31 22 20 23 28 33 35 37 47 61 68 69 68 72 73 66 55 51 52 51 47 47 52 58 62 62 59 54 52 54 55 51 44 35 27 24 26 28 30 31 33 36 41 47 53 58 64 69 71 73 73 73 72 72 71 69 67 65 62 58 54 50 47 44 42 39 37 35 33 30
36 34 34 34 34 34 32 30 30 28 25 26 27 28 27 24 22 23 22 24 28 29 31 39 49 61 75 77 73 73 70 64 62 62 59 53 50 50 53 55 52 47 42 39 39 40 40 37 33 29 27 27 28 29 28 29 32 36 40 45 50 56 61 63 64 66 67 67 65 61 56 51 47 43 40 38 36 35 34 33 32 30 28 26 24
47 42 38 36 35 35 35 34 33 31 30 30 30 30 30 28 25 24 24 27 29 27 35 51 61 69 78 77 71 68 65 63 64 64 61 59 58 57 56 53 48 42 39 38 37 36 37 37 34 31 33 35 34 32 31 31 32 35 38 42 45 47 49 51 52 53 51 48 44 40 38 36 35 35 34 34 34 34 33 32 31 29 28 27 26
67 60 52 46 42 39 38 37 35 34 34 35 35 36 37 37 35 33 31 32 32 29 39 61 82 92 88 76 73 77 77 75 74 68 63 65 69 71 69 63 58 53 46 43 44 42 39 41 47 49 50 49 42 35 34 35 35 37 39 40 40 39 40 43 43 42 40 37 36 38 39 39 39 39 38 37 36 35 34 33 33 33 33 33 35
82 77 71 65 59 55 51 47 45 45 46 47 46 46 46 46 45 43 40 40 38 35 39 49 64 80 86 83 86 93 95 95 90 81 75 74 79 87 87 79 73 66 55 47 45 43 39 45 62 73 69 56 42 35 36 36 35 36 37 37 36 36 36 38 38 38 39 42 44 46 45 44 43 41 40 39 38 37 36 36 36 37 38 41 43
94 91 87 82 78 75 72 68 65 63 61 60 58 56 56 56 55 51 48 47 44 41 43 46 48 57 70 84 94 95 97 102 98 86 80 76 78 89 98 95 84 69 53 43 44 55 61 59 65 73 67 51 38 34 36 35 34 36 37 37 38 39 39 40 43 47 50 52 52 49 46 44 42 41 41 42 42 43 45 46 46 44 43 44 47
100 99 98 96 92 89 85 82 78 73 70 69 67 65 63 62 61 58 54 53 50 44 42 43 46 50 62 83 98 97 96 101 101 94 87 80 75 74 76 75 69 58 50 43 43 58 69 61 53 53 49 41 37 36 36 37 39 42 45 47 49 49 51 52 53 54 55 55 53 51 50 51 51 51 52 52 53 53 53 52 49 45 43 44 46
102 102 102 101 98 94 90 86 82 78 76 75 77 77 74 69 66 65 64 63 63 59 53 50 51 55 61 75 90 96 95 96 95 91 87 81 76 70 63 59 55 51 51 47 43 47 52 48 46 45 44 44 46 46 45 47 51 55 59 62 63 63 62 64 67 70 73 74 73 70 68 65 62 60 57 54 53 51 48 46 45 44 44 43 42
102 101 100 98 95 94 94 91 88 84 80 79 80 81 81 78 76 76 77 77 78 77 73 69 67 69 72 75 78 82 85 86 85 83 80 75 71 69 68 69 69 66 62 55 51 53 54 53 53 53 54 56 57 56 57 60 63 69 74 76 79 81 82 85 88 87 82 76 70 63 58 55 52 49 47 45 44 43 43 45 46 45 43 41 40
91 90 91 92 92 93 94 94 93 91 88 86 83 81 80 81 82 84 84 83 83 82 80 79 80 84 89 91 87 82 82 84 86 86 82 75 69 69 73 76 79 80 74 65 61 63 62 61 61 63 65 67 66 65 67 71 78 86 90 91 94 96 95 92 86 76 67 60 55 50 47 46 44 43 43 43 44 45 47 48 48 47 46 46 46
82 81 82 84 86 87 88 88 89 89 89 88 86 85 83 82 83 84 83 81 79 79 79 80 82 84 88 91 92 90 87 85 84 83 78 71 69 69 70 73 81 88 85 77 73 73 73 71 70 69 69 70 72 76 79 84 92 95 94 96 100 100 95 86 76 67 63 59 55 52 50 47 47 48 48 48 50 52 53 52 53 53 53 52 51
81 80 79 78 78 78 79 79 79 78 77 76 76 76 74 74 74 72 70 70 70 69 69 70 71 72 74 74 75 75 74 73 73 73 71 69 71 72 72 76 88 96 95 91 88 87 87 85 82 79 79 79 79 79 79 83 90 96 99 101 101 96 87 77 70 65 62 59 57 56 55 56 58 59 58 58 59 60 60 59 59 59 57 56 55
77 76 76 74 72 70 69 68 66 64 61 59 58 57 56 58 61 59 57 56 56 55 56 56 57 59 60 63 65 66 65 64 64 66 71 75 80 85 88 91 97 101 102 101 99 97 95 92 90 87 83 78 73 67 64 65 71 79 86 86 83 78 71 67 64 62 60 60 61 61 64 68 70 69 66 64 64 64 64 64 62 58 54 52 53
69 68 67 66 64 62 60 58 55 52 50 47 46 45 43 44 48 51 50 47 46 48 48 47 48 50 52 61 71 75 75 72 67 69 80 89 94 99 101 102 103 102 96 91 90 92 94 94 90 83 76 72 71 71 71 72 71 72 74 75 76 77 75 72 69 66 64 66 68 71 74 76 74 70 66 64 64 65 64 60 55 49 45 46 48
57 55 54 52 51 49 48 46 44 43 41 39 38 37 36 35 37 42 45 46 48 51 50 51 58 60 57 62 72 78 83 88 85 84 90 96 100 102 100 96 92 85 79 82 88 93 97 99 95 90 87 88 92 95 96 96 94 93 94 95 95 94 91 89 88 86 83 82 83 86 86 82 76 71 66 65 66 65 59 52 45 40 41 45 47
35 34 33 32 31 30 29 28 28 27 27 26 26 25 26 26 26 28 31 36 44 50 50 54 65 68 62 61 65 68 79 93 99 99 98 100 102 98 86 80 83 82 81 91 101 100 98 100 100 98 98 99 100 100 100 100 101 101 101 102 102 100 99 100 100 98 97 97 98 98 94 86 79 70 64 64 65 60 52 44 37 33 34 36 34
17 17 16 16 15 15 15 15 15 15 15 15 15 14 14 15 15 16 16 18 25 33 39 47 57 63 65 66 63 61 68 81 92 97 96 94 93 87 74 74 90 94 85 85 96 99 97 98 99 99 100 101 100 100 102 101 100 101 100 100 101 101 101 102 101 101 101 102 102 100 93 85 77 68 65 65 62 54 45 36 29 27 25 22 20
10 10 10 10 10 11 11 11 11 11 11 11 10 10 10 10 9 10 10 10 11 14 20 28 37 48 60 70 74 76 78 81 84 89 89 84 83 86 82 78 82 83 78 81 96 103 99 98 99 100 101 98 92 93 101 101 99 101 101 100 100 101 100 101 100 99 99 99 99 96 89 81 74 69 66 62 53 44 36 29 25 23 19 16 17
9 9 9 9 8 8 8 9 9 9 8 8 8 8 8 8 8 7 7 8 9 9 10 12 17 23 33 46 61 78 93 99 97 96 95 91 90 97 101 92 81 76 77 85 98 104 102 101 102 102 103 98 89 92 101 103 100 101 101 100 101 102 102 101 100 97 98 101 101 94 82 71 66 61 56 50 44 37 32 29 27 22 16 15 17
8 8 9 9 9 10 10 10 10 10 9 9 9 9 8 8 8 8 7 7 7 7 7 8 8 10 14 20 30 48 69 86 95 100 102 101 98 99 103 99 92 88 87 89 97 104 104 102 101 100 101 101 99 101 104 101 98 101 101 100 101 101 100 101 100 99 101 102 98 87 74 65 61 57 53 48 42 36 33 34 32 24 17 16 17
11 12 12 12 13 13 13 12 12 11 11 10 9 9 9 8 8 8 8 8 8 7 7 7 7 7 8 10 13 21 33 49 67 83 93 99 101 102 102 100 100 100 99 99 102 104 102 100 101 101 100 101 104 104 102 99 99 101 100 100 100 100 101 101 100 100 102 102 97 88 78 70 64 59 55 49 41 37 40 43 38 27 19 16 17
14 15 14 14 14 13 12 11 11 10 9 9 9 8 8 8 8 8 8 8 8 8 7 8 8 8 9 9 9 12 17 25 41 58 73 87 97 101 100 99 101 101 101 100 102 103 102 101 102 102 101 101 103 102 101 100 100 100 100 100 100 99 100 100 99 99 101 102 98 90 78 67 60 55 50 46 44 46 50 50 41 28 18 17 20
15 14 13 12 11 11 10 9 9 9 8 9 9 9 9 9 8 9 9 9 9 9 9 10 10 10 11 11 11 12 13 16 24 37 54 73 89 98 101 102 101 101 101 100 99 100 101 100 100 102 103 103 104 103 102 101 100 100 101 101 100 100 101 101 101 102 100 95 89 79 67 59 58 59 58 57 58 57 56 51 41 26 17 20 25
13 12 11 10 9 9 9 9 10 11 12 13 13 13 14 13 13 13 13 13 12 11 10 11 12 14 15 15 14 14 14 14 15 20 29 42 59 76 91 97 96 97 100 101 100 100 100 99 99 101 100 100 100 100 100 100 101 101 101 100 99 101 101 100 97 93 87 80 73 68 66 69 75 82 83 78 71 65 60 53 39 23 19 25 28
11 10 10 10 10 11 13 14 16 17 17 18 18 17 17 16 16 16 17 19 20 20 20 21 22 24 24 23 21 18 16 16 16 17 20 23 28 40 57 72 81 90 98 101 100 100 99 98 100 102 102 100 99 98 98 99 101 101 101 101 102 99 94 90 85 79 76 76 78 82 86 91 95 99 97 89 78 68 58 45 29 20 24 30 27
10 10 10 12 13 15 16 17 19 19 20 19 19 18 18 20 23 26 28 30 30 32 35 38 41 42 41 39 34 29 24 20 18 17 20 23 24 24 28 39 56 75 90 98 100 101 100 97 93 92 92 92 94 96 97 98 100 103 102 101 102 99 91 84 82 83 87 92 96 98 99 98 96 92 86 77 66 54 40 28 22 26 32 31 25
12 12 13 15 16 17 18 19 20 21 22 21 19 18 22 28 32 33 30 28 30 39 49 53 52 52 52 51 47 43 39 34 28 24 24 28 31 30 26 25 30 40 52 63 71 75 75 69 60 53 51 51 55 62 67 74 86 99 102 100 100 99 96 93 94 96 97 96 92 87 83 78 72 64 56 50 44 36 30 29 32 36 35 30 27
15 16 17 18 17 17 19 21 22 23 24 23 20 21 29 38 43 38 28 24 31 49 66 72 69 65 64 64 64 64 62 57 50 44 40 40 43 44 41 37 32 28 28 31 33 33 34 34 32 30 28 29 38 52 62 73 88 100 102 100 101 100 99 100 98 92 84 78 71 65 59 55 51 48 46 44 43 41 40 40 39 37 34 33 33
19 20 21 20 20 20 22 23 24 25 26 26 25 25 30 39 45 46 42 40 42 50 60 69 73 74 72 73 78 86 91 91 87 78 69 61 58 58 58 55 51 45 40 36 34 33 32 31 28 26 27 37 59 81 90 94 100 103 101 100 103 102 98 94 87 77 68 62 56 52 50 49 48 49 48 46 44 43 41 40 39 38 39 39 41
22 24 24 23 23 24 24 26 28 29 30 31 32 34 35 37 40 42 45 48 51 54 59 66 73 77 78 77 77 80 87 95 100 101 95 83 72 68 67 66 63 59 54 50 48 46 42 39 39 44 54 68 85 98 102 100 100 102 102 102 103 99 90 80 72 63 57 53 51 51 53 52 51 49 46 43 41 40 40 41 44 45 46 46 46
25 27 26 26 27 28 27 29 32 34 33 33 36 39 41 43 43 43 43 45 47 50 55 61 67 73 78 81 81 80 81 83 86 88 87 81 76 78 81 82 79 71 63 60 57 50 48 56 70 80 90 98 101 101 101 101 102 102 102 98 92 84 74 66 60 54 53 56 60 61 60 56 52 46 41 39 40 43 48 52 53 51 50 49 50
28 28 28 30 31 31 30 31 35 37 37 37 39 43 47 52 55 53 51 49 49 51 53 55 57 59 63 70 79 86 91 92 92 90 87 85 88 93 94 89 82 72 65 66 67 60 58 76 97 102 99 100 103 103 102 101 100 97 92 85 76 68 62 58 57 57 61 63 62 56 51 47 43 41 42 48 56 62 63 60 56 52 51 53 54
29 29 31 33 32 32 33 34 36 37 34 32 33 37 45 57 66 67 61 55 52 53 55 56 56 56 56 58 63 70 76 81 84 87 89 90 92 94 92 87 83 80 78 84 89 80 65 69 90 103 103 102 103 103 101 98 93 87 82 75 68 64 62 62 62 62 63 61 58 59 62 63 62 65 73 78 78 73 66 58 54 53 55 57 59
32 33 36 36 34 34 35 33 31 28 23 20 20 20 24 35 49 59 63 60 53 48 46 49 53 58 59 58 58 58 60 62 65 67 70 73 75 77 77 77 80 84 87 92 101 100 84 69 70 83 94 97 97 95 93 90 86 82 78 73 69 68 67 65 62 63 67 72 77 84 91 93 94 96 95 87 75 66 60 56 57 60 63 66 69
37 40 41 38 35 33 31 26 23 20 18 18 18 17 16 17 21 30 41 48 49 48 49 54 59 63 65 66 66 65 63 64 68 70 72 74 74 74 73 73 76 83 89 91 96 102 99 86 74 71 74 79 81 82 81 79 78 78 76 74 73 72 68 64 65 73 83 91 95 98 100 101 100 95 86 75 66 63 63 65 70 76 81 85 88
43 43 39 34 30 27 24 22 21 22 22 22 21 20 19 18 16 16 18 24 29 36 45 55 64 70 70 67 68 72 77 83 85 81 77 75 74 71 70 72 76 84 93 99 99 100 102 99 94 87 82 79 77 75 72 71 72 73 74 74 72 69 67 71 80 90 97 99 100 101 101 98 91 83 76 73 73 77 82 88 94 97 99 101 102
42 35 28 25 24 24 23 24 25 25 25 26 26 25 22 20 19 17 16 15 15 17 23 33 47 63 72 69 61 58 65 77 82 76 68 68 71 72 74 77 80 83 89 96 99 99 98 98 97 94 91 86 81 78 74 72 70 70 70 70 70 72 78 87 95 99 99 99 99 99 96 91 86 84 85 87 91 95 99 102 103 101 101 103 104
33 26 22 22 23 24 25 26 27 27 28 28 28 27 24 21 19 19 19 18 16 15 14 15 21 35 55 70 71 59 50 52 60 62 61 64 73 80 84 86 88 88 89 91 94 95 96 96 96 96 94 89 83 78 74 71 70 70 73 78 84 91 96 99 100 99 99 100 100 99 97 96 95 95 97 99 101 102 103 102 101 101 101 101 101
Wind_Speed
21 19 19 20 21 20 21 21 20 19 18 18 19 18 18 19 19 20 20 21 21 21 20 19 18 18 17 15 15 16 17 17 18 19 20 20 20 20 20 19 18 17 17 17 16 15 14 13 13 13 14 14 15 17 17 17 16 17 18 19 18 18 18 18 19 18 17 16 16 17 17 16 14 15 16 17 17 17 16 16 16 17 17 18 18
26 24 23 24 25 23 21 21 19 17 17 18 19 19 19 19 18 17 17 18 20 20 20 19 19 18 15 14 14 15 17 19 19 20 21 21 21 21 20 19 18 17 18 17 16 14 13 12 12 12 13 14 15 15 16 16 16 17 18 18 18 18 17 17 17 17 18 18 18 18 17 16 14 16 17 17 17 17 17 17 17 18 18 19 19
25 26 26 26 25 22 20 19 17 17 17 18 19 19 18 18 17 17 17 17 19 20 21 21 20 18 15 15 18 18 18 20 21 21 22 22 22 21 21 20 19 18 18 17 16 15 13 12 11 12 13 14 14 14 14 14 15 16 17 18 18 18 17 16 17 17 18 18 17 17 17 16 16 17 18 18 18 18 19 19 19 20 20 21 21
24 25 26 25 25 22 20 19 20 21 21 20 20 19 18 18 18 18 18 18 19 20 21 21 20 18 16 18 20 21 21 21 22 23 23 22 22 21 20 20 19 19 18 18 16 15 13 12 12 13 14 14 14 14 13 14 14 15 16 17 18 18 18 18 18 18 18 18 17 17 17 17 18 19 19 19 20 20 21 21 21 21 21 22 22
21 23 25 26 25 23 21 22 22 22 23 22 21 21 20 19 19 18 17 18 20 20 20 19 18 17 16 18 19 21 22 22 23 23 22 21 20 19 18 18 18 18 18 17 17 15 14 13 13 13 14 15 15 14 14 15 16 16 17 18 19 20 20 20 19 19 19 19 19 18 19 20 21 21 21 21 21 21 21 21 22 22 23 23 23
19 22 25 26 26 24 22 22 22 21 20 20 19 20 20 18 17 17 17 18 20 20 19 18 18 18 18 19 19 19 22 23 23 23 22 20 18 18 17 17 17 17 17 17 17 16 15 14 14 14 15 15 15 15 16 16 17 17 18 19 20 21 21 21 20 19 19 19 20 20 20 20 21 21 22 22 21 21 22 22 22 23 23 23 23
20 21 23 24 25 25 22 21 22 22 18 16 16 16 16 16 17 17 18 18 18 19 19 19 19 19 19 18 18 18 21 23 23 23 21 20 18 18 18 18 17 17 16 16 16 16 16 15 15 15 15 15 15 15 16 17 17 17 16 17 17 19 20 21 20 20 20 20 20 20 21 21 21 21 21 21 21 21 22 23 23 24 24 24 24
20 20 20 20 21 23 22 22 23 23 18 15 14 14 15 17 17 16 15 16 17 17 18 19 21 22 20 18 16 17 20 21 21 22 22 21 20 19 18 17 17 17 16 16 15 15 15 15 15 15 14 14 14 15 16 17 17 17 17 16 16 17 18 19 20 21 21 21 21 22 23 23 23 22 22 22 22 22 23 24 25 26 26 26 27
19 19 18 17 18 20 20 19 20 19 17 15 14 14 15 16 15 14 13 15 16 16 15 16 19 21 20 17 15 16 17 17 17 18 19 19 19 18 18 17 17 17 16 15 14 14 15 15 15 15 14 13 13 14 15 17 18 19 19 19 19 19 20 20 20 20 20 21 21 21 22 23 23 23 23 23 24 24 25 26 27 28 29 30 30
19 18 17 17 17 16 14 14 15 15 15 16 15 13 13 14 13 13 13 13 12 11 11 11 12 15 15 13 12 12 11 10 11 13 14 15 16 17 17 18 17 17 17 16 15 16 16 16 16 16 15 15 15 15 16 17 19 20 21 22 22 22 22 22 22 21 21 21 22 22 23 23 24 24 25 25 26 27 28 30 31 32 33 34 35
18 18 18 18 17 16 14 14 16 15 14 15 14 13 13 13 12 12 11 11 9 8 8 9 9 9 10 9 9 9 8 8 9 9 10 11 12 13 15 16 16 16 16 17 17 17 17 17 18 18 18 18 18 18 19 19 20 21 22 23 24 24 24 24 24 24 23 23 24 25 26 27 28 29 29 30 31 32 34 35 36 37 37 39 40
19 19 19 19 19 18 16 15 15 15 14 15 15 14 14 14 13 13 13 12 11 10 9 10 11 11 11 10 10 11 12 11 11 10 10 11 11 12 13 14 14 15 16 17 17 17 17 18 18 19 19 19 19 20 21 22 23 23 24 24 25 25 26 26 27 27 28 28 29 30 31 32 33 33 34 35 36 37 38 39 40 41 42 43 44
22 22 22 21 21 19 18 16 16 16 16 17 18 17 17 17 17 16 16 15 15 15 15 16 17 18 16 14 14 15 16 15 13 13 13 13 13 13 14 14 15 15 16 17 18 18 18 19 20 21 21 21 21 22 22 23 24 25 25 25 26 26 27 28 29 30 31 32 33 34 34 35 36 36 37 38 39 39 40 41 42 42 43 44 45
25 25 25 24 24 23 21 21 20 20 20 20 20 21 21 22 21 20 20 19 19 19 19 19 20 20 18 15 15 17 18 18 18 17 16 16 16 16 16 17 18 18 19 20 20 21 22 23 24 23 23 23 24 24 25 26 26 27 27 27 28 28 29 30 31 32 33 33 34 36 37 38 39 40 40 41 41 42 42 43 43 44 44 45 45
26 27 27 27 27 26 25 24 24 24 24 23 23 24 24 25 24 24 23 22 21 21 22 22 23 22 21 18 18 19 21 22 22 22 21 20 19 19 20 21 22 23 24 24 24 25 26 27 26 26 26 26 26 27 27 28 29 30 30 31 31 32 33 33 34 34 35 36 37 38 39 40 41 42 42 43 43 43 44 44 44 45 45 45 44
27 28 28 29 29 28 27 27 27 27 26 26 27 27 27 27 27 27 26 24 23 23 23 23 23 23 22 23 23 25 26 27 26 26 25 25 24 23 24 25 27 28 29 29 29 29 30 30 30 30 30 29 29 30 30 31 32 32 33 34 34 35 36 36 37 37 38 38 39 39 40 40 40 41 41 42 42 43 43 43 43 44 44 44 45
29 30 30 31 31 31 30 30 30 30 30 30 30 30 30 29 29 29 29 27 25 25 23 22 25 25 24 26 27 28 28 28 28 29 28 28 28 28 29 31 31 31 32 32 33 33 33 33 33 32 32 31 32 33 33 34 34 35 36 37 37 38 38 39 39 39 39 39 39 39 39 39 40 40 41 41 42 42 43 43 44 45 46 46 46
32 33 33 33 33 32 32 32 32 33 33 33 33 32 31 31 31 31 31 29 28 28 26 27 30 30 27 26 26 25 25 27 30 31 30 29 30 31 33 34 34 34 35 35 36 36 36 36 35 35 35 35 35 36 36 37 37 38 38 39 39 40 40 40 40 40 39 39 39 39 40 40 41 42 42 43 44 45 46 46 47 48 48 48 49
32 33 34 34 34 34 34 34 34 34 34 33 33 32 32 33 33 33 33 32 31 31 30 31 34 33 30 27 26 26 28 32 34 35 35 35 35 36 36 37 37 38 39 39 38 37 37 37 38 38 38 38 38 39 39 39 40 40 40 40 40 40 41 41 41 41 40 40 41 41 42 42 43 44 45 46 47 48 49 50 50 50 50 50 50
30 31 32 33 33 33 33 33 34 34 34 34 34 34 34 34 34 34 35 35 34 34 35 35 36 36 33 31 32 33 35 37 37 37 38 39 40 41 42 43 44 44 44 44 41 38 38 39 40 41 41 40 40 40 41 41 41 41 40 40 40 40 41 41 41 41 42 42 43 44 44 45 46 47 48 49 50 51 51 52 52 52 52 51 51
27 28 29 30 31 31 32 33 34 35 35 35 35 36 36 36 37 37 37 37 37 37 37 37 39 40 39 38 39 39 40 40 41 42 42 43 43 44 45 47 48 48 47 46 44 42 42 42 41 41 42 41 40 40 40 41 41 40 40 40 40 41 41 42 43 43 44 45 46 47 47 48 49 50 51 52 52 52 53 53 53 52 51 50 50
32 34 36 38 40 41 41 40 40 41 41 41 40 40 40 40 40 40 40 41 40 40 40 40 41 42 42 43 45 47 47 47 48 49 48 48 48 49 48 48 48 48 47 46 45 43 43 43 42 42 41 41 41 41 42 42 42 42 42 42 42 43 44 45 46 47 47 48 49 50 50 51 52 52 53 53 53 53 53 52 52 51 50 50 50
45 46 47 47 47 47 46 44 43 43 44 45 46 46 46 46 46 45 45 45 45 44 43 43 43 43 43 44 46 48 49 49 49 49 48 47 47 47 47 47 47 47 47 46 45 44 44 43 43 42 42 42 43 44 44 44 44 44 44 45 45 46 47 48 48 49 50 51 52 52 53 53 53 54 54 54 53 53 53 52 52 51 51 51 52
50 51 51 51 50 49 48 47 45 44 44 45 46 47 48 49 48 48 47 47 46 45 45 44 44 44 45 45 46 47 48 48 48 49 48 48 47 47 48 48 48 47 47 47 47 47 46 45 45 45 45 46 46 46 46 46 46 47 48 49 49 49 50 50 51 52 53 54 55 55 55 55 55 54 54 53 52 52 52 52 53 53 53 54 56
46 46 48 49 49 48 47 46 45 44 44 44 44 45 46 47 47 47 48 47 47 47 47 48 48 48 49 50 50 50 51 52 52 53 53 53 52 52 52 52 51 50 50 50 50 49 49 49 49 50 49 49 49 50 50 51 51 52 52 52 52 52 53 53 54 55 56 56 57 56 55 54 52 51 51 51 51 51 52 53 54 55 56 57 59
43 43 43 44 45 45 46 46 46 46 45 46 46 46 47 47 47 48 49 50 50 51 51 51 52 52 53 53 52 53 54 55 56 56 55 54 53 53 52 51 50 49 48 48 49 50 51 52 53 53 53 54 54 55 55 55 55 55 55 55 54 54 54 54 55 56 56 56 55 54 52 50 50 49 49 50 51 52 53 54 55 56 58 60 62
44 44 45 45 46 47 47 48 49 50 50 50 50 50 50 50 50 51 52 53 53 53 54 54 55 55 54 52 51 51 52 54 55 55 53 51 50 48 47 46 47 48 49 51 52 52 52 53 52 52 53 54 54 53 53 53 54 55 55 54 54 54 54 54 55 55 55 54 53 52 50 49 49 49 49 50 51 52 53 53 55 57 60 62 64
46 47 48 49 49 50 51 52 52 53 54 54 54 55 55 55 55 55 55 55 55 55 55 54 54 54 53 51 49 49 50 51 51 50 50 49 47 47 47 50 52 54 54 54 54 52 50 48 47 47 48 49 49 49 49 50 51 52 52 52 52 52 52 52 52 52 52 52 51 50 49 49 48 49 50 51 52 52 52 53 55 59 62 64 66
48 49 50 51 52 52 53 54 55 56 57 57 58 58 59 59 59 59 59 59 58 58 58 57 56 56 56 55 53 52 51 51 49 49 50 49 47 47 51 54 55 53 51 50 48 46 45 45 43 43 43 43 44 45 45 45 46 47 47 47 47 47 47 48 48 48 48 47 47 47 47 47 48 50 52 53 52 52 52 54 58 61 63 64 66
50 51 51 52 52 53 54 55 56 57 57 58 59 60 61 61 62 63 63 63 63 62 62 61 61 61 61 61 60 59 58 57 56 56 57 56 54 53 54 54 53 51 51 51 49 46 45 45 44 42 41 43 46 46 43 41 42 43 42 42 43 44 45 45 45 45 45 44 44 45 46 48 50 52 53 53 52 52 54 57 59 60 62 62 61
48 48 49 49 49 50 50 51 52 53 54 55 56 57 58 60 61 62 62 63 64 64 64 64 63 63 63 63 62 62 62 62 63 63 61 60 59 58 58 58 57 56 57 58 56 50 45 43 41 40 42 47 51 49 44 43 44 43 41 41 41 42 43 43 43 43 43 43 44 45 46 48 50 52 53 53 54 55 57 58 58 59 60 59 56
43 43 43 43 44 44 44 45 46 47 48 49 50 51 52 54 55 57 58 58 59 61 62 62 63 63 64 63 63 62 62 62 62 61 57 55 55 55 54 55 57 59 61 61 57 51 47 47 48 49 52 54 53 49 46 46 45 43 42 40 40 41 42 42 42 41 41 43 45 47 47 48 49 51 53 55 58 58 58 57 57 58 58 56 54
37 37 38 38 39 40 41 42 44 45 46 48 49 50 51 52 53 55 56 57 57 58 59 59 60 61 62 63 63 63 63 63 62 61 58 57 58 58 55 55 56 59 61 62 60 58 56 55 55 56 57 56 55 53 50 47 46 46 45 42 41 42 42 41 41 41 41 44 47 48 48 50 52 55 58 60 60 59 56 56 57 58 57 55 54
35 36 37 38 39 41 42 43 44 45 46 47 48 49 50 51 52 53 54 56 56 57 58 59 60 60 61 62 62 62 63 64 64 64 63 62 62 62 61 59 59 60 61 62 64 64 63 61 59 57 56 55 55 55 54 51 51 51 47 43 42 45 45 43 43 43 45 47 49 50 53 56 59 61 61 61 59 57 55 56 58 58 57 55 52
36 37 38 38 39 40 41 42 43 43 44 45 46 47 49 50 51 52 53 54 55 56 57 58 59 60 61 62 62 62 62 62 63 64 65 65 64 64 63 61 60 60 61 62 63 64 63 63 64 64 63 61 61 60 59 58 56 51 45 42 44 47 48 48 48 50 53 54 55 58 61 62 60 59 58 57 56 55 55 57 59 59 57 53 47
35 35 36 37 37 37 38 38 39 40 41 42 43 45 47 48 50 50 52 53 54 54 54 55 56 57 58 59 60 61 62 62 62 63 63 64 65 64 63 63 62 61 60 59 59 60 61 62 63 64 65 66 67 66 64 62 57 52 48 46 47 50 52 55 58 61 63 63 64 64 62 59 57 56 56 56 56 55 56 59 61 59 54 47 41
32 33 33 33 33 33 34 34 35 36 37 38 40 42 44 46 48 50 50 52 53 53 52 52 52 53 55 56 57 58 59 60 62 62 63 64 65 65 64 64 65 64 59 52 48 49 52 53 53 55 57 60 62 62 61 60 58 57 57 56 56 57 59 61 63 64 64 63 62 60 58 57 57 57 57 57 56 56 59 63 63 57 49 42 37
29 29 29 29 29 29 30 30 30 31 32 34 36 39 41 42 44 44 44 45 46 46 45 44 45 47 49 52 54 55 56 57 58 59 61 62 64 64 65 65 66 65 62 57 52 50 50 51 50 51 53 56 57 58 58 58 57 57 57 57 58 59 59 59 59 59 59 58 57 56 56 56 56 56 56 56 57 60 63 64 59 50 43 38 35
25 26 26 26 27 27 27 27 27 29 31 33 35 37 37 36 35 34 35 36 38 38 38 37 36 37 39 42 45 48 51 53 54 54 55 56 58 60 62 63 64 65 66 67 66 63 61 59 58 57 57 57 58 59 60 60 56 52 51 52 53 55 56 56 55 54 54 54 55 56 57 57 57 58 59 61 62 64 62 57 49 42 37 34 32
23 24 25 25 25 26 26 26 27 29 31 33 35 34 31 29 27 27 28 30 31 32 32 31 31 31 31 33 35 37 40 43 45 47 48 49 50 51 53 56 58 60 62 64 66 66 65 63 61 59 57 56 55 54 55 55 52 49 48 49 50 51 51 52 51 52 54 55 57 58 59 60 61 61 61 61 59 56 51 45 40 36 33 30 29
22 23 24 24 25 25 26 27 27 27 28 30 31 28 24 22 22 22 21 22 22 23 24 26 27 27 28 27 28 28 30 32 34 37 39 41 42 43 44 46 47 49 51 53 54 56 57 57 56 56 55 51 47 43 43 45 46 47 49 50 50 50 50 51 52 53 54 55 55 55 55 55 54 53 51 49 46 43 40 37 34 31 29 27 26
21 22 22 23 23 24 24 25 25 24 24 25 25 23 20 18 17 17 17 16 16 16 18 20 23 25 26 25 25 25 26 27 28 30 32 34 35 36 37 37 38 38 40 41 41 43 44 45 45 45 43 40 37 36 38 41 43 46 48 49 49 48 48 49 49 48 48 47 47 47 47 46 45 43 41 40 38 37 35 33 30 27 25 24 23
19 20 20 20 21 21 21 22 21 21 20 20 20 19 17 15 14 14 14 14 14 14 14 15 17 19 21 21 21 21 22 24 25 26 27 29 30 31 31 32 32 32 32 32 33 34 35 35 34 33 31 30 31 35 39 42 44 45 45 44 44 43 43 42 42 42 42 43 43 43 42 42 41 41 39 38 36 34 31 28 25 23 23 22 21
17 17 18 18 18 18 18 18 18 17 17 17 16 16 15 14 13 13 13 13 13 13 13 13 14 15 16 16 16 17 17 18 20 21 23 24 26 27 28 28 29 29 29 29 29 29 27 26 25 26 28 30 31 33 37 40 41 41 39 38 38 38 38 38 39 40 41 41 41 41 42 42 41 40 37 35 31 28 25 23 22 21 21 21 20
15 15 15 15 15 15 15 14 13 13 13 13 14 15 16 16 15 14 13 13 12 12 12 12 12 13 13 14 14 14 15 15 16 17 19 21 22 24 26 27 28 28 29 29 28 27 25 25 27 29 31 31 31 31 31 31 31 31 32 33 34 35 36 38 39 39 39 40 41 41 40 38 35 32 29 26 24 22 21 20 19 19 20 20 20
14 13 13 13 13 12 12 10 9 9 10 12 14 15 16 17 16 15 14 14 13 12 11 11 10 10 10 11 11 12 13 14 15 16 17 18 20 23 25 27 28 29 30 30 29 27 27 29 32 33 32 31 31 31 30 29 29 29 30 32 34 35 37 38 38 37 37 37 36 33 30 27 25 22 21 19 19 18 18 18 18 19 19 20 19
12 11 11 11 10 9 7 6 6 8 10 11 13 15 16 17 17 16 15 14 13 12 11 10 10 10 9 8 9 9 10 11 12 13 14 16 17 20 22 24 26 27 28 29 29 29 28 31 35 38 38 37 36 34 32 31 31 31 32 33 34 35 35 35 35 34 32 30 27 23 21 20 19 17 17 16 16 16 17 17 18 18 19 19 18
9 8 8 7 5 3 3 4 5 6 8 10 12 13 15 16 17 17 16 15 13 12 11 11 11 11 10 9 8 9 9 10 10 11 12 13 14 16 17 19 21 23 24 25 25 26 27 29 33 36 38 38 36 35 33 32 32 32 32 32 32 33 33 33 31 29 26 23 21 19 18 17 16 15 15 15 15 16 16 16 17 17 18 18 18
5 5 4 3 1 0 1 2 3 4 6 8 10 12 13 14 15 15 15 15 14 14 13 12 12 11 11 10 10 9 9 10 10 10 10 9 9 10 11 13 15 18 20 21 22 23 24 25 27 29 30 32 32 31 31 31 30 30 29 29 30 30 30 28 26 23 20 18 17 15 14 14 13 13 13 13 14 14 14 15 15 16 17 17 18
5 5 4 4 3 2 2 2 3 4 6 8 10 11 13 14 15 15 15 15 15 15 14 14 13 11 10 10 10 10 8 8 8 7 5 3 4 5 7 8 9 11 13 14 16 17 19 20 22 23 25 26 27 28 28 28 27 27 27 27 27 26 24 21 19 17 15 14 12 12 11 11 11 11 11 12 12 13 13 14 15 17 17 17 18
8 8 7 7 6 5 5 5 5 6 7 9 10 12 13 15 15 16 16 17 17 16 16 15 14 13 10 9 8 8 8 6 4 3 2 1 3 5 6 6 5 5 5 6 9 11 13 15 16 18 20 22 24 24 25 25 25 24 23 22 21 19 17 15 14 12 11 10 9 9 9 9 10 11 11 12 13 14 14 15 16 17 17 16 17
Wind_Direction
245 242 236 233 237 240 240 241 244 248 252 254 255 256 258 258 256 253 251 252 255 258 262 267 269 270 270 267 260 253 250 250 250 248 246 246 248 251 256 260 263 263 261 258 253 248 246 245 243 240 236 234 234 236 237 238 239 241 242 244 246 248 250 252 253 254 257 259 258 256 256 257 260 262 262 263 264 266 269 272 275 277 279 280 281
246 241 235 233 237 242 239 239 245 251 255 259 260 262 266 269 271 272 273 273 273 270 268 266 267 269 274 279 278 267 254 249 249 247 245 246 247 250 254 256 257 256 254 252 249 246 245 242 238 235 235 235 235 236 239 241 244 246 248 249 249 248 249 250 251 253 255 255 254 253 252 252 254 257 261 265 268 271 272 274 275 276 277 278 278
245 240 239 236 236 240 243 244 246 248 250 252 254 259 265 271 277 281 284 287 287 283 278 272 268 267 273 287 292 287 269 252 247 247 244 244 246 248 251 253 251 248 247 247 247 247 244 237 228 222 223 226 229 233 240 246 250 253 254 254 254 252 251 250 250 250 250 250 251 253 256 257 257 257 259 263 265 268 271 272 272 273 274 275 276
243 241 241 238 235 237 241 240 238 241 242 244 248 253 258 264 271 275 278 282 283 283 280 274 266 259 267 283 290 290 282 262 250 249 248 246 248 250 251 252 251 250 249 248 248 247 244 236 224 217 216 219 222 225 229 236 243 249 251 253 255 256 254 253 252 251 252 252 252 253 255 258 260 261 262 264 266 268 271 272 273 273 273 274 275
241 240 239 238 234 233 233 233 235 238 241 243 246 250 255 262 266 269 273 277 280 280 278 272 261 255 267 282 285 288 287 274 258 253 251 249 249 249 249 252 254 255 255 254 252 248 243 234 225 220 220 222 224 226 228 231 235 241 245 249 253 255 255 254 254 255 257 259 259 257 256 258 262 265 267 269 270 271 273 274 275 275 275 275 276
242 240 237 236 232 227 229 236 239 239 243 247 249 252 256 256 255 260 269 276 277 276 274 267 260 260 271 278 278 281 285 280 268 259 254 249 246 244 245 248 251 253 256 257 256 254 248 239 232 230 231 233 235 236 236 237 238 241 244 247 249 251 252 253 254 255 257 261 264 264 263 263 263 265 268 270 272 274 275 276 277 277 276 276 277
244 242 238 236 232 227 231 242 245 242 244 249 248 249 255 256 257 266 275 277 276 276 276 268 258 260 270 276 277 281 284 281 273 264 256 247 240 238 240 242 245 248 251 255 259 260 256 249 243 241 242 245 248 250 249 249 248 248 248 249 249 249 250 251 252 253 254 256 259 262 264 265 266 267 270 272 276 279 281 281 281 282 282 283 285
239 238 236 237 235 232 236 243 246 244 243 246 247 251 258 262 265 273 279 280 280 282 282 273 259 257 267 278 284 286 285 279 272 265 259 250 241 237 237 239 242 245 249 253 256 257 256 253 251 251 252 254 256 258 260 262 262 260 258 256 256 256 255 255 254 253 253 252 254 257 261 264 268 271 273 276 280 283 284 284 285 286 287 289 290
238 238 236 236 236 234 234 238 241 240 239 244 250 255 257 256 261 272 279 280 282 284 286 280 265 259 266 277 281 279 275 270 265 261 257 252 246 242 240 239 241 245 246 243 240 243 248 252 255 256 256 257 259 261 262 264 265 266 265 264 264 265 265 264 261 258 256 254 253 255 258 262 266 270 273 276 279 281 283 284 285 286 287 288 288
240 240 236 232 231 231 231 234 236 235 237 244 247 249 251 253 262 275 279 279 282 284 290 291 272 258 258 261 263 263 259 255 255 254 254 252 249 246 243 241 242 245 244 239 235 239 246 250 254 257 261 266 269 269 267 266 267 268 269 269 270 270 270 268 265 262 259 257 257 259 262 265 268 271 274 277 279 281 282 284 285 286 287 288 288
239 239 236 234 233 233 235 238 237 234 235 239 239 244 251 254 262 272 273 274 280 280 284 285 272 254 243 237 238 243 245 248 252 254 258 259 257 252 247 245 244 245 245 246 246 248 252 255 258 263 268 273 276 275 273 273 273 273 272 272 274 274 272 269 265 262 261 262 263 265 268 270 273 276 278 280 282 283 284 285 286 287 288 289 288
235 236 236 235 234 234 234 234 233 232 231 233 239 247 250 250 256 264 264 266 271 270 266 266 266 263 255 245 241 245 249 251 253 257 261 261 261 258 254 250 248 247 248 251 253 254 257 261 266 270 274 277 278 277 275 275 276 275 274 273 273 273 272 270 267 265 265 267 269 270 271 273 275 277 279 282 283 284 286 286 287 288 288 288 288
231 232 234 234 234 235 234 230 228 229 233 239 246 250 249 251 258 261 258 258 262 264 265 266 266 265 259 251 248 251 253 252 254 260 262 259 258 257 256 255 253 252 254 256 256 257 259 262 267 273 278 280 279 278 277 277 276 275 274 273 271 270 270 269 268 268 269 271 273 275 277 278 280 281 282 283 284 285 286 286 286 286 286 286 286
229 231 233 234 235 236 236 233 231 231 236 241 245 246 248 253 257 259 258 258 261 264 267 269 268 266 261 254 252 254 255 257 261 265 264 260 258 257 257 256 256 256 258 259 259 259 261 264 269 273 276 277 277 277 278 277 277 275 274 273 272 271 270 269 269 269 270 272 274 276 279 281 283 285 286 286 286 286 286 286 286 285 286 286 287
233 235 236 238 239 239 238 237 236 237 240 243 247 250 252 253 255 257 259 262 265 268 269 270 270 269 266 262 262 265 265 265 267 269 268 263 259 257 258 258 259 261 260 259 259 260 261 263 266 268 270 271 272 273 274 275 275 274 274 274 273 273 272 272 272 272 273 274 275 277 278 280 282 283 284 284 285 285 284 284 284 284 285 286 287
238 239 239 239 240 240 239 239 240 242 245 248 253 256 258 257 257 257 259 261 265 271 274 272 269 266 263 264 268 271 272 271 270 271 270 266 261 258 260 262 264 264 263 262 261 260 261 261 262 264 264 265 267 269 271 272 272 273 274 274 274 274 274 274 274 275 275 276 277 278 279 280 280 281 282 282 282 282 282 283 283 284 285 287 288
242 242 241 240 239 240 241 242 244 245 248 251 253 254 255 256 257 259 259 259 264 270 271 265 260 258 260 265 267 269 270 269 268 267 265 263 260 259 261 264 264 263 264 265 264 263 263 263 263 262 262 262 265 268 269 270 271 272 273 274 275 276 277 277 277 277 277 278 279 280 281 281 281 282 282 282 283 283 283 284 284 285 287 289 289
245 245 245 244 243 243 244 245 247 249 251 252 253 253 254 255 256 257 256 255 260 266 265 260 259 260 263 263 261 261 262 262 262 262 262 261 260 260 261 262 261 262 265 267 267 266 265 264 263 263 263 266 269 270 271 271 272 273 274 275 277 278 278 277 277 276 277 277 278 278 279 280 280 281 281 282 283 283 284 285 287 288 289 289 289
246 247 248 249 250 251 251 252 254 256 257 258 259 259 259 259 258 256 254 253 257 263 264 260 259 260 259 253 246 244 247 253 258 261 261 261 261 261 262 262 263 266 268 268 267 265 263 262 262 263 266 269 272 273 273 273 273 274 274 275 276 276 276 275 275 275 275 275 275 275 276 277 278 279 280 281 282 284 285 287 288 288 288 287 286
246 247 249 251 253 255 257 259 261 262 263 264 263 262 261 261 260 259 257 258 262 266 266 263 260 258 254 245 238 237 241 249 256 259 260 262 263 263 265 266 268 270 271 270 268 264 261 261 263 265 267 269 271 272 273 274 273 273 273 273 273 273 273 273 272 272 273 273 274 275 275 276 278 279 281 282 284 285 286 287 287 287 286 285 285
243 247 251 253 256 259 262 265 266 266 266 266 265 264 263 262 261 260 260 263 266 268 268 267 265 262 257 250 244 243 246 252 258 261 264 266 268 269 270 270 270 270 270 270 268 265 263 263 264 265 267 269 270 271 272 272 272 272 272 272 272 271 271 270 270 271 272 273 274 275 276 278 280 281 284 285 286 287 287 287 287 286 285 285 285
246 250 255 258 262 265 267 268 267 266 265 265 263 263 262 261 260 261 262 264 267 268 268 268 266 264 261 258 255 253 254 257 261 264 267 269 271 273 274 273 272 271 270 269 267 265 264 263 264 264 266 266 267 268 269 269 270 270 270 269 268 268 268 269 270 271 273 275 276 278 279 281 283 285 286 287 288 288 288 287 286 285 285 284 285
254 257 259 261 263 264 266 266 265 263 262 261 260 260 259 259 260 261 263 265 266 267 267 266 264 262 261 260 259 259 261 263 265 266 267 269 270 271 272 273 273 271 269 266 264 263 263 263 264 265 265 265 265 266 266 267 267 267 266 266 266 267 268 270 272 273 275 276 278 279 281 283 284 286 286 287 288 288 287 286 286 285 285 285 287
261 262 262 263 263 263 263 262 261 259 258 258 259 259 259 259 260 262 263 264 265 265 265 264 262 261 260 260 259 259 260 262 263 264 265 266 267 267 268 270 270 268 266 264 263 263 264 264 265 265 265 265 266 266 267 266 266 265 265 265 266 268 270 272 273 275 276 277 278 279 281 283 284 284 285 286 286 286 286 286 286 286 286 288 290
267 267 267 267 267 266 266 265 263 262 261 261 261 261 262 263 264 264 265 265 265 265 265 264 263 263 262 262 262 262 263 263 264 264 265 265 264 264 265 265 265 264 263 262 262 263 264 265 265 266 267 268 268 268 267 266 265 265 266 267 268 270 271 273 274 275 276 277 278 280 281 281 282 283 284 284 285 286 286 286 286 287 289 290 291
270 270 271 271 271 271 271 271 270 270 269 268 268 267 266 266 265 265 265 264 264 264 264 264 264 264 264 265 266 266 266 267 267 267 267 266 264 263 262 261 260 260 261 263 265 267 267 267 268 268 268 268 267 267 266 266 265 266 266 268 269 270 271 272 273 274 275 276 277 278 279 280 281 281 282 283 284 285 285 286 288 290 291 292 292
268 269 270 270 271 271 272 272 273 273 273 273 273 272 271 269 268 266 266 266 265 264 264 264 264 264 265 266 267 267 267 267 268 269 270 267 264 261 259 259 261 264 269 271 271 270 269 269 269 269 268 267 266 266 266 266 266 266 266 267 267 268 269 270 271 272 273 274 276 277 278 279 280 280 282 283 284 286 287 289 291 293 294 293 293
265 266 267 268 269 269 270 271 271 272 272 272 272 272 272 271 270 268 268 268 267 266 266 265 264 263 262 262 263 266 267 267 265 264 263 262 260 259 261 264 267 270 271 269 267 266 266 267 267 267 266 266 266 266 265 265 265 265 265 265 266 267 268 270 270 271 273 274 275 276 277 277 278 280 281 283 284 286 288 290 292 294 294 293 294
267 267 268 268 268 269 269 269 269 270 270 270 270 270 269 269 269 268 267 266 265 264 264 263 262 261 260 258 256 255 257 259 260 258 254 253 256 262 267 270 270 268 265 262 261 262 263 263 263 263 262 262 262 262 262 262 263 263 264 265 266 267 268 269 269 270 271 272 273 274 275 276 277 279 280 281 282 284 287 290 294 295 294 294 296
269 269 269 269 269 269 269 269 269 269 270 270 270 269 269 268 268 267 267 266 265 263 263 262 260 259 259 258 257 254 251 251 253 255 254 254 256 259 262 265 265 264 261 259 258 259 259 258 259 259 258 255 255 256 258 261 263 266 267 266 265 265 266 267 268 269 270 271 271 272 273 274 275 277 278 279 282 285 288 293 296 296 296 297 298
270 269 269 269 269 269 269 269 269 269 269 269 268 268 268 268 267 267 266 266 265 264 263 262 261 260 258 257 257 256 254 251 251 253 255 258 259 258 256 255 257 258 259 258 256 255 255 254 254 257 258 257 257 260 262 264 265 265 263 261 262 265 268 270 271 272 272 272 271 272 273 274 275 276 277 280 283 287 291 295 296 297 298 299 299
270 270 270 270 270 270 270 270 270 269 269 269 269 268 268 268 268 268 266 265 265 265 264 263 262 260 259 257 256 254 253 252 252 251 250 252 255 255 253 251 252 253 256 256 255 255 257 256 257 262 265 264 262 262 263 263 263 262 262 265 270 273 273 272 273 273 273 272 271 272 273 274 276 278 281 284 287 289 292 294 296 298 300 300 299
270 270 271 271 272 272 272 272 272 272 271 271 271 270 269 268 268 268 267 266 265 264 264 263 262 261 260 258 256 254 252 250 250 249 246 246 248 250 250 249 249 250 252 254 255 257 260 261 262 264 263 260 257 256 256 257 261 264 267 270 271 269 265 266 268 270 269 269 271 273 274 277 280 283 285 287 288 288 289 292 295 299 301 300 300
273 273 274 274 274 274 274 274 274 274 273 273 272 272 271 270 268 267 267 266 265 264 263 262 261 260 259 258 256 255 253 251 250 248 247 247 249 250 251 251 251 253 254 256 257 258 260 261 262 263 261 257 254 253 254 258 264 268 268 266 262 259 257 258 262 265 267 268 271 273 277 281 284 284 285 285 284 284 286 290 295 299 300 300 300
275 276 276 277 277 277 278 278 278 277 277 277 276 275 274 273 271 269 268 266 265 264 263 262 261 260 259 257 256 255 253 252 250 249 247 246 247 249 251 252 253 255 258 259 260 260 261 262 263 263 263 262 261 260 261 263 266 266 263 259 256 255 255 257 262 267 270 272 274 277 281 284 284 282 281 280 280 282 285 290 295 298 299 299 297
278 278 279 281 282 283 284 285 285 285 284 284 283 281 279 278 276 274 272 270 268 266 264 263 262 260 259 258 257 255 254 252 250 249 248 247 246 247 249 249 250 252 256 259 259 259 259 259 260 260 260 261 262 263 263 264 264 262 259 257 256 256 258 261 266 271 274 276 278 280 283 283 282 280 278 278 278 280 285 290 295 297 298 296 291
282 284 286 288 290 292 293 294 294 293 292 291 290 287 284 281 279 277 274 273 271 270 268 266 264 262 260 258 257 256 254 253 251 250 249 248 247 246 247 248 248 249 252 253 253 252 252 254 255 257 258 258 259 260 261 263 263 263 263 263 263 265 267 270 273 275 278 280 281 282 282 281 279 278 277 277 278 281 285 291 294 295 294 290 284
287 290 293 295 297 299 299 300 300 299 300 299 298 294 290 285 282 279 276 273 272 271 270 268 266 264 262 260 258 256 255 253 252 251 250 249 248 248 248 248 248 247 247 247 248 250 252 253 254 257 259 260 261 263 264 266 268 269 270 271 273 274 276 277 278 279 280 280 280 280 279 278 277 277 277 278 280 283 287 291 292 291 287 282 276
292 296 299 300 301 302 302 302 302 303 305 306 305 302 296 290 285 282 278 275 273 271 269 267 267 267 266 264 261 259 257 255 254 252 251 250 250 250 250 250 250 248 248 249 252 256 258 260 261 262 262 262 263 265 266 268 270 272 273 274 276 276 276 276 276 275 275 275 276 277 277 278 279 281 282 283 284 286 288 289 288 284 279 274 271
298 300 301 301 301 301 301 302 303 305 307 310 310 307 301 294 289 285 283 279 275 270 267 266 267 268 269 268 266 263 260 258 256 255 253 252 252 251 251 251 252 251 251 252 255 258 260 263 264 265 266 266 265 265 264 265 266 266 266 266 267 266 267 268 268 270 272 275 278 280 282 283 284 285 285 285 285 285 285 283 280 276 271 267 266
299 300 299 299 299 299 300 302 304 305 309 315 318 315 308 301 297 295 295 292 285 276 269 266 266 267 269 269 268 267 264 261 259 257 255 254 253 253 253 253 253 254 254 255 256 257 259 261 262 263 265 266 267 265 262 259 257 255 255 257 258 260 263 267 271 274 277 279 281 283 284 284 284 284 283 283 282 280 279 276 273 269 264 262 261
298 299 299 299 299 299 301 304 306 307 312 322 328 328 321 315 311 308 308 307 302 292 281 274 271 271 272 272 271 269 267 264 262 259 257 255 254 254 255 256 256 256 256 256 257 258 259 260 261 262 263 263 262 258 254 250 248 248 251 255 259 263 268 273 276 278 280 282 282 283 283 282 282 281 280 279 278 276 274 271 267 261 258 256 255
297 300 301 301 301 303 306 309 310 310 314 324 333 337 336 333 329 325 322 319 316 309 301 292 285 282 280 280 278 275 271 267 264 261 257 254 252 252 253 254 255 255 256 257 258 259 261 262 262 261 258 254 249 247 246 245 246 250 254 259 263 267 272 275 278 280 283 284 284 283 282 281 280 279 278 277 276 274 271 264 257 252 250 250 250
298 300 303 305 308 311 313 314 314 313 315 323 332 338 340 341 339 336 332 328 323 318 313 308 301 295 291 289 286 282 278 272 267 262 257 253 251 251 251 252 252 253 255 257 259 260 259 256 251 244 237 233 234 238 244 248 251 254 258 262 265 270 274 278 281 284 285 285 284 283 282 281 279 278 276 274 272 268 261 253 247 245 246 247 248
297 301 306 312 315 317 320 322 322 322 328 339 347 351 352 349 345 340 335 331 327 323 319 315 311 304 298 294 289 284 280 276 270 264 259 255 252 251 251 251 251 253 255 256 257 256 249 238 229 226 224 226 231 239 246 251 254 257 260 263 268 272 277 281 283 284 284 284 283 283 281 279 276 273 270 266 261 254 247 242 241 243 245 247 248
295 300 306 311 314 319 326 333 339 348 2 11 14 13 10 5 359 350 343 338 338 338 336 332 327 319 309 299 291 284 279 275 271 267 262 258 255 254 253 253 254 255 256 255 256 255 247 235 230 231 234 238 242 247 252 257 260 262 265 268 272 276 279 281 282 283 284 284 283 281 278 274 269 264 259 252 246 241 239 240 242 244 247 249 250
293 300 304 306 311 322 336 352 8 21 26 27 26 24 22 19 15 9 2 354 352 353 354 351 345 338 327 313 298 289 284 279 274 271 267 264 261 259 259 259 258 259 258 257 255 254 249 241 237 240 245 250 254 257 261 264 266 268 269 272 275 277 279 280 282 283 283 282 279 276 271 265 259 251 244 238 235 236 238 242 245 248 250 251 251
293 299 300 301 309 333 7 26 31 30 28 26 25 24 23 22 21 19 16 10 2 356 351 346 343 342 337 327 309 293 285 283 283 281 276 272 270 268 267 265 262 260 258 256 254 251 249 245 243 245 249 253 257 261 263 265 266 268 270 272 275 276 278 281 283 283 281 277 272 267 260 252 244 237 232 231 234 239 243 247 248 249 251 252 254
283 281 276 273 273 354 68 47 24 15 12 13 13 14 14 16 17 18 18 16 12 6 359 351 345 342 343 341 332 312 290 281 283 286 284 279 277 278 278 274 267 259 255 254 253 252 251 249 248 248 250 253 256 258 261 263 264 267 268 270 273 275 277 279 280 279 275 270 263 254 244 236 231 230 232 236 241 246 248 250 251 251 253 257 259
237 229 221 216 214 218 237 279 317 336 348 353 357 358 1 4 7 9 10 10 10 10 7 3 357 351 347 347 346 339 321 298 286 285 289 293 296 300 301 294 281 268 259 254 252 252 251 251 251 251 251 252 253 255 257 259 261 263 266 268 270 273 274 274 273 271 267 259 248 238 231 229 231 235 240 245 249 251 252 252 253 255 257 259 261
216 213 213 216 224 234 252 275 297 314 326 335 340 345 349 353 356 358 360 1 2 3 3 2 1 357 353 349 348 348 344 331 303 280 270 284 308 313 318 318 309 297 279 263 256 256 257 258 258 257 256 255 254 253 254 255 257 260 262 264 265 266 266 265 263 259 252 242 235 232 235 238 242 245 247 248 249 251 252 254 255 257 258 259 261